Location: Chippewa Lake
(41.0698°N, 81.9010°W)
Time: 03:32:37
(UTC+00:00)

SL-8 Rocket - Pass Details

Date: 28 September 2021
Orbit: 958 x 990 km, 82.9° (Epoch: 17 October)

Event Time Altitude Azimuth Distance (km) Brightness Sun altitude
Rises 01:13:58 0° 189° (S) 3,667 6.9 -22.8°
Reaches altitude 10° 01:16:27 10° 191° (S) 2,727 6.2 -23.3°
Maximum altitude 01:22:44 78° 278° (W) 1,010 4.1 -24.4°
Drops below altitude 10° 01:29:04 10° 5° (N) 2,759 6.5 -25.5°
Sets 01:31:37 0° 7° (N) 3,712 7.2 -25.9°
